St. George, AK

11:56 AM AKDT on March 25, 2017 (GMT -0800)
Saint George

Weather History for PAPB - October, 2013

Change the Weather History Date:

Wednesday, October 16, 2013

  Actual Average Record
Temperature  
Mean Temperature 40 °F -  
Max Temperature 44 °F 40 °F 48 °F (2002)
Min Temperature 37 °F 33 °F 26 °F (2008)
Degree Days  
Heating Degree Days 24    
Moisture  
Dew Point 40 °F    
Average Humidity 95    
Maximum Humidity 100    
Minimum Humidity 85    
Precipitation  
Precipitation 0.06 in - - ()
Sea Level Pressure  
Sea Level Pressure 29.57 in    
Wind  
Wind Speed 9 mph (WNW)    
Max Wind Speed 14 mph    
Max Gust Speed 16 mph    
Visibility 6 miles    
Events Rain    
Averages and records for this station are not official NWS values.
T = Trace of Precipitation, MM = Missing Value Source: NWS Daily Summary

Daily Weather History Graph

Daily Weather History Graph

Search for Another Location

Airport or City:

Trip Planner

Search our weather history database for the weather conditions in past years. The results will help you decide how hot, cold, wet, or windy it might be!

Date:

Astronomy

Oct. 16, 2013 Rise Set
Actual Time 9:54 AM AKDT 8:12 PM AKDT
Civil Twilight 9:15 AM AKDT 8:51 PM AKDT
Nautical Twilight 8:32 AM AKDT 9:34 PM AKDT
Astronomical Twilight 7:48 AM AKDT 10:18 PM AKDT
Moon 7:15 PM AKDT (10/16) 7:15 AM AKDT (10/16)
Length of Visible Light 11h 35m
Length of Day
10h 18m
Waxing Gibbous, 95% of the Moon is Illuminated
Oct 16
Waxing Gibbous
Oct 18
Full
Oct 26
Last Quarter
Nov 3
New
Nov 9
First Quarter

Hourly Weather History & Observations

Time (AKDT) Temp. Windchill Dew Point Humidity Pressure Visibility Wind Dir Wind Speed Gust Speed Precip Events Conditions
12:28 AM 44.6 °F 38.8 °F 44.6 °F 100% 29.52 in 2.5 mi SSW 11.5 mph - N/A   Overcast
12:53 AM 43.0 °F 36.8 °F 43.0 °F 100% 29.49 in 1.5 mi SSW 11.5 mph - 0.01 in Rain Light Rain
1:26 AM 42.8 °F 37.5 °F 42.8 °F 100% 29.52 in 1.0 mi SW 9.2 mph - 0.01 in Rain Light Rain
1:37 AM 42.8 °F 38.0 °F 42.8 °F 100% 29.52 in 2.0 mi SW 8.1 mph - 0.01 in   Overcast
1:53 AM 43.0 °F 38.8 °F 43.0 °F 100% 29.49 in 5.0 mi SSW 6.9 mph - 0.01 in   Overcast
2:10 AM 42.8 °F 39.3 °F 42.8 °F 100% 29.52 in 2.5 mi SSW 5.8 mph - N/A   Overcast
2:53 AM 43.0 °F 38.8 °F 43.0 °F 100% 29.48 in 1.8 mi SW 6.9 mph - N/A   Overcast
3:12 AM 42.8 °F 38.6 °F 42.8 °F 100% 29.51 in 2.5 mi SSW 6.9 mph - N/A   Overcast
3:17 AM 42.8 °F 38.0 °F 42.8 °F 100% 29.51 in 3.0 mi SW 8.1 mph - N/A   Overcast
3:22 AM 42.8 °F 37.0 °F 42.8 °F 100% 29.51 in 1.8 mi SW 10.4 mph - N/A   Overcast
3:41 AM 42.8 °F 38.6 °F 42.8 °F 100% 29.51 in 0.8 mi SW 6.9 mph - 0.01 in Rain Light Rain
3:47 AM 42.8 °F 37.0 °F 42.8 °F 100% 29.51 in 1.0 mi WSW 10.4 mph - 0.01 in   Mist
3:53 AM 43.0 °F 38.2 °F 43.0 °F 100% 29.48 in 1.0 mi West 8.1 mph - 0.01 in   Mist
4:00 AM 42.8 °F 38.0 °F 42.8 °F 100% 29.51 in 1.5 mi West 8.1 mph - N/A   Overcast
4:31 AM 42.8 °F 37.0 °F 42.8 °F 100% 29.51 in 0.8 mi West 10.4 mph - N/A   Mist
4:40 AM 42.8 °F 37.0 °F 42.8 °F 100% 29.51 in 0.8 mi West 10.4 mph - N/A   Mist
4:44 AM 42.8 °F 37.5 °F 42.8 °F 100% 29.51 in 1.0 mi West 9.2 mph - N/A   Mist
4:48 AM 42.8 °F 38.0 °F 42.8 °F 100% 29.51 in 2.0 mi West 8.1 mph - N/A   Overcast
4:53 AM 42.1 °F 36.6 °F 42.1 °F 100% 29.48 in 2.5 mi West 9.2 mph - N/A   Overcast
4:57 AM 42.8 °F 37.0 °F 42.8 °F 100% 29.51 in 3.0 mi West 10.4 mph - N/A   Overcast
5:04 AM 42.8 °F 36.6 °F 42.8 °F 100% 29.51 in 5.0 mi West 11.5 mph - N/A   Overcast
5:50 AM 41.0 °F 33.9 °F 41.0 °F 100% 29.51 in 5.0 mi West 12.7 mph - N/A   Overcast
5:53 AM 41.0 °F 34.3 °F 41.0 °F 100% 29.48 in 7.0 mi West 11.5 mph - N/A   Overcast
6:11 AM 41.0 °F 34.7 °F 41.0 °F 100% 29.51 in - West 10.4 mph - N/A   Overcast
6:38 AM 41.0 °F - 41.0 °F 100% 29.52 in - North - - 0.01 in   Overcast
6:45 AM 41.0 °F - 41.0 °F 100% 29.52 in 5.0 mi North - - 0.01 in   Overcast
6:50 AM 41.0 °F - 41.0 °F 100% 29.52 in - North - - 0.01 in   Overcast
6:53 AM 41.0 °F - 41.0 °F 100% 29.49 in - North - - 0.01 in   Overcast
7:14 AM 41.0 °F - 41.0 °F 100% 29.52 in - North - - N/A   Overcast
7:26 AM 41.0 °F 35.8 °F 39.2 °F 93% 29.52 in - West 8.1 mph - N/A   Overcast
7:36 AM 41.0 °F - 39.2 °F 93% 29.52 in - North - - N/A   Overcast
7:55 AM 39.2 °F 32.5 °F 39.2 °F 100% 29.52 in - WNW 10.4 mph - N/A   Unknown
8:25 AM 41.0 °F 35.2 °F 39.2 °F 93% 29.53 in 7.0 mi WNW 9.2 mph - N/A   Overcast
8:53 AM 41.0 °F 34.7 °F 39.0 °F 93% 29.51 in 6.0 mi WNW 10.4 mph - N/A   Overcast
9:09 AM 41.0 °F 35.2 °F 39.2 °F 93% 29.55 in 7.0 mi West 9.2 mph - N/A   Overcast
9:19 AM 41.0 °F 35.2 °F 39.2 °F 93% 29.55 in 7.0 mi WNW 9.2 mph - N/A   Overcast
9:26 AM 41.0 °F 35.2 °F 39.2 °F 93% 29.55 in 8.0 mi WNW 9.2 mph - N/A   Overcast
9:53 AM 41.0 °F 35.2 °F 39.0 °F 93% 29.52 in 8.0 mi WNW 9.2 mph - N/A   Overcast
10:03 AM 41.0 °F 35.8 °F 39.2 °F 93% 29.56 in 8.0 mi WNW 8.1 mph - N/A   Overcast
10:32 AM 39.2 °F 34.2 °F 39.2 °F 100% 29.57 in 8.0 mi WNW 6.9 mph - N/A   Overcast
10:53 AM 41.0 °F 35.8 °F 39.0 °F 93% 29.54 in 6.0 mi WNW 8.1 mph - N/A   Overcast
11:03 AM 41.0 °F 35.8 °F 39.2 °F 93% 29.58 in 9.0 mi WNW 8.1 mph - N/A   Overcast
11:12 AM 41.0 °F 37.1 °F 39.2 °F 93% 29.58 in 10.0 mi WNW 5.8 mph - N/A   Overcast
11:27 AM 41.0 °F 37.1 °F 39.2 °F 93% 29.59 in 10.0 mi WNW 5.8 mph - N/A   Overcast
11:53 AM 41.0 °F 37.1 °F 39.9 °F 96% 29.56 in 7.0 mi WNW 5.8 mph - N/A   Overcast
12:23 PM 41.0 °F 35.8 °F 39.2 °F 93% 29.60 in 8.0 mi West 8.1 mph - N/A   Overcast
12:53 PM 42.1 °F 36.1 °F 39.0 °F 89% 29.57 in 10.0 mi West 10.4 mph - N/A   Overcast
1:53 PM 43.0 °F 36.8 °F 41.0 °F 93% 29.59 in 10.0 mi West 11.5 mph - N/A   Overcast
2:53 PM 42.1 °F 37.1 °F 39.0 °F 89% 29.60 in 10.0 mi NW 8.1 mph - N/A   Mostly Cloudy
3:45 PM 41.0 °F 34.7 °F 39.2 °F 93% 29.63 in 9.0 mi NNW 10.4 mph - N/A   Overcast
3:47 PM 42.8 °F 36.2 °F 39.2 °F 87% 29.63 in 10.0 mi NNW 12.7 mph - N/A   Overcast
3:53 PM 42.1 °F 35.7 °F 39.0 °F 89% 29.60 in 10.0 mi NNW 11.5 mph - N/A   Overcast
4:00 PM 42.8 °F 36.6 °F 39.2 °F 87% 29.64 in 7.0 mi NNW 11.5 mph - N/A   Overcast
4:28 PM 42.8 °F 36.6 °F 39.2 °F 87% 29.64 in 10.0 mi NNW 11.5 mph - N/A   Overcast
4:53 PM 42.1 °F 36.1 °F 37.9 °F 85% 29.62 in 10.0 mi NNW 10.4 mph - N/A   Overcast
5:04 PM 42.8 °F 38.0 °F 39.2 °F 87% 29.65 in 6.0 mi North 8.1 mph - N/A   Overcast
5:20 PM 42.8 °F 37.0 °F 39.2 °F 87% 29.66 in 10.0 mi NNW 10.4 mph - N/A   Overcast
5:43 PM 41.0 °F 34.3 °F 37.4 °F 87% 29.66 in 10.0 mi North 11.5 mph - N/A   Overcast
5:53 PM 41.0 °F 33.5 °F 37.9 °F 89% 29.63 in 10.0 mi NNW 13.8 mph - N/A   Overcast
6:53 PM 41.0 °F 35.8 °F 37.9 °F 89% 29.65 in 6.0 mi North 8.1 mph - N/A   Overcast
7:53 PM 39.9 °F 35.8 °F 37.9 °F 93% 29.70 in 10.0 mi North 5.8 mph - N/A   Overcast
8:32 PM 39.2 °F 35.9 °F 37.4 °F 93% 29.70 in 10.0 mi Variable 4.6 mph - N/A   Overcast
8:48 PM 39.2 °F 32.5 °F 37.4 °F 93% 29.70 in 4.0 mi North 10.4 mph 16.1 mph 0.00 in Rain Light Rain
8:53 PM 39.0 °F 31.0 °F 37.0 °F 93% 29.67 in 2.5 mi North 13.8 mph - 0.01 in Rain Light Rain
8:59 PM 39.2 °F 33.0 °F 37.4 °F 93% 29.71 in 3.0 mi North 9.2 mph - 0.00 in Rain Light Rain
9:39 PM 39.2 °F 33.6 °F 37.4 °F 93% 29.72 in 10.0 mi North 8.1 mph - 0.00 in   Overcast
9:53 PM 39.0 °F 36.8 °F 37.0 °F 93% 29.70 in 7.0 mi North 3.5 mph - 0.00 in   Overcast
10:48 PM 37.4 °F - 35.6 °F 93% 29.74 in 7.0 mi North - - 0.00 in Rain Light Rain
10:53 PM 37.0 °F - 36.0 °F 96% 29.70 in 9.0 mi North - - 0.00 in Rain Light Rain
11:53 PM 39.0 °F - 37.0 °F 93% 29.71 in 9.0 mi Calm Calm - 0.01 in   Overcast